,,Stat5,,Stat1,,Stat2,,Stat3,,Stat4,,Wind1,,Wind1,
time,status,PA1M_AVG,status,PR1M_SUM,status,RH1M_AVG,status,SR1M_AVG,status,TA1M_AVG,status,W1dAve1m,status,W1sAve1m,
2003-05-19, 00:00:00,VALID,919.12,VALID,0,VALID,95.2114,VALID,0,VALID,18.7426,VALID,74,VALID,0.7519,
2003-05-19, 00:01:00,VALID,919.12,VALID,0,VALID,95.2788,VALID,0.0339617,VALID,18.704,VALID,76,VALID,0.805078,
2003-05-19, 00:02:00,VALID,919.113,VALID,0,VALID,95.598,VALID,0,VALID,18.6163,VALID,73,VALID,0.956826,
2003-05-19, 00:03:00,VALID,919.098,VALID,0,VALID,96.2388,VALID,0.0169808,VALID,18.5907,VALID,72,VALID,1.10817,
2003-05-19, 00:04:00,VALID,919.078,VALID,0,VALID,95.9489,VALID,0.0679233,VALID,18.5708,VALID,64,VALID,1.05569,
2003-05-19, 00:05:00,VALID,919.073,VALID,0,VALID,95.3958,VALID,0.0339617,VALID,18.4998,VALID,118,VALID,0.705387,
2003-05-19, 00:06:00,VALID,919.059,VALID,0,VALID,96.1765,VALID,0.0509425,VALID,18.4481,VALID,96,VALID,0.995313,
2003-05-19, 00:07:00,VALID,919.055,VALID,0,VALID,96.8314,VALID,0.0509425,VALID,18.4707,VALID,95,VALID,0.909961,
2003-05-19, 00:08:00,VALID,919.041,VALID,0,VALID,96.881,VALID,0.0509425,VALID,18.4771,VALID,97,VALID,0.889358,
2003-05-19, 00:09:00,VALID,919.038,VALID,0,VALID,97.2129,VALID,0.0339617,VALID,18.4642,VALID,94,VALID,1.00501,
2003-05-19, 00:10:00,VALID,919.036,VALID,0,VALID,97.41,VALID,0.0849042,VALID,18.4771,VALID,103,VALID,1.05859,
2003-05-19, 00:11:00,VALID,919.046,VALID,0,VALID,97.658,VALID,0.0849042,VALID,18.5381,VALID,112,VALID,1.07891,
2003-05-19, 00:12:00,VALID,919.055,VALID,0,VALID,97.6287,VALID,0.101885,VALID,18.5671,VALID,111,VALID,1.11739,
2003-05-19, 00:13:00,VALID,919.057,VALID,0,VALID,97.5791,VALID,0.0849042,VALID,18.6151,VALID,104,VALID,1.14788,
2003-05-19, 00:14:00,VALID,919.069,VALID,0,VALID,97.4087,VALID,0.118866,VALID,18.6604,VALID,110,VALID,1.22266,
2003-05-19, 00:15:00,VALID,919.069,VALID,0,VALID,97.1353,VALID,0.152827,VALID,18.6964,VALID,118,VALID,1.29287,
2003-05-19, 00:16:00,VALID,919.088,VALID,0,VALID,97.0565,VALID,0.118866,VALID,18.6897,VALID,110,VALID,1.38516,
2003-05-19, 00:17:00,VALID,919.074,VALID,0,VALID,97.1035,VALID,0.0849042,VALID,18.7195,VALID,107,VALID,1.42422,
2003-05-19, 00:18:00,VALID,919.084,VALID,0,VALID,97.1112,VALID,0.0679233,VALID,18.7215,VALID,120,VALID,1.29567,
2003-05-19, 00:19:00,VALID,919.078,VALID,0,VALID,96.8785,VALID,0.118866,VALID,18.7411,VALID,115,VALID,1.20313,
2003-05-19, 00:20:00,VALID,919.087,VALID,0,VALID,96.8352,VALID,0.152827,VALID,18.7188,VALID,114,VALID,1.31498,
2003-05-19, 00:21:00,VALID,919.09,VALID,0,VALID,96.7755,VALID,0.118866,VALID,18.7185,VALID,111,VALID,1.42027,
2003-05-19, 00:22:00,VALID,919.092,VALID,0,VALID,96.6076,VALID,0.101885,VALID,18.6989,VALID,116,VALID,1.27365,
2003-05-19, 00:23:00,VALID,919.099,VALID,0,VALID,96.628,VALID,0.169808,VALID,18.6694,VALID,114,VALID,1.2606,
2003-05-19, 00:24:00,VALID,919.114,VALID,0,VALID,96.7666,VALID,0.169808,VALID,18.65,VALID,108,VALID,1.26182,
2003-05-19, 00:25:00,VALID,919.116,VALID,0,VALID,97.1531,VALID,0.135847,VALID,18.6417,VALID,106,VALID,1.36004,
2003-05-19, 00:26:00,VALID,919.128,VALID,0,VALID,97.0374,VALID,0,VALID,18.6348,VALID,102,VALID,0.943257,
2003-05-19, 00:27:00,VALID,919.142,VALID,0,VALID,97.1951,VALID,0.0339617,VALID,18.6392,VALID,112,VALID,1.0397,
2003-05-19, 00:28:00,VALID,919.131,VALID,0,VALID,97.307,VALID,0.0169808,VALID,18.6454,VALID,114,VALID,1.1875,
2003-05-19, 00:29:01,VALID,919.125,VALID,0,VALID,97.2917,VALID,0.0679233,VALID,18.6225,VALID,111,VALID,1.09601,
2003-05-19, 00:30:01,VALID,919.126,VALID,0,VALID,97.4952,VALID,0.0679233,VALID,18.6098,VALID,112,VALID,0.970553,
2003-05-19, 00:31:00,VALID,919.122,VALID,0,VALID,97.6071,VALID,0.0679233,VALID,18.6131,VALID,111,VALID,1.21664,
2003-05-19, 00:32:01,VALID,919.113,VALID,0,VALID,97.5956,VALID,0.0679233,VALID,18.6128,VALID,107,VALID,1.13241,
2003-05-19, 00:33:00,VALID,919.112,VALID,0,VALID,97.6554,VALID,0.0849042,VALID,18.5997,VALID,108,VALID,1.03378,
2003-05-19, 00:34:00,VALID,919.102,VALID,0,VALID,97.5766,VALID,0.0169808,VALID,18.587,VALID,118,VALID,0.958789,
2003-05-19, 00:35:00,VALID,919.1,VALID,0,VALID,97.4151,VALID,0.0849042,VALID,18.5547,VALID,120,VALID,0.882031,
2003-05-19, 00:36:01,VALID,919.096,VALID,0,VALID,97.4825,VALID,0.0169808,VALID,18.5124,VALID,120,VALID,0.883024,
2003-05-19, 00:37:00,VALID,919.079,VALID,0,VALID,97.3782,VALID,0.0509425,VALID,18.4868,VALID,132,VALID,0.574424,
2003-05-19, 00:38:00,VALID,919.051,VALID,0,VALID,97.4736,VALID,0.0849042,VALID,18.4483,VALID,127,VALID,0.905649,
2003-05-19, 00:39:00,VALID,919.038,VALID,0,VALID,97.6427,VALID,0.0339617,VALID,18.4351,VALID,122,VALID,1.17428,
2003-05-19, 00:40:00,VALID,919.029,VALID,0,VALID,97.7165,VALID,0.0679233,VALID,18.4247,VALID,124,VALID,1.07632,
2003-05-19, 00:41:00,VALID,919.012,VALID,0,VALID,97.7838,VALID,0.0679233,VALID,18.419,VALID,127,VALID,0.946915,
2003-05-19, 00:42:00,VALID,919.015,VALID,0,VALID,97.8462,VALID,0.0849042,VALID,18.4289,VALID,127,VALID,1.03622,
2003-05-19, 00:43:00,VALID,919.007,VALID,0,VALID,97.9466,VALID,0.0679233,VALID,18.4644,VALID,121,VALID,1.13722,
2003-05-19, 00:44:00,VALID,918.995,VALID,0,VALID,97.8627,VALID,0.0509425,VALID,18.4935,VALID,107,VALID,0.955448,
2003-05-19, 00:45:01,VALID,918.985,VALID,0,VALID,97.78,VALID,0.0509425,VALID,18.4928,VALID,113,VALID,0.861133,
2003-05-19, 00:46:01,VALID,918.973,VALID,0,VALID,97.6694,VALID,0.0679233,VALID,18.5159,VALID,99,VALID,0.886102,
2003-05-19, 00:47:00,VALID,918.961,VALID,0,VALID,97.5791,VALID,0.0509425,VALID,18.5256,VALID,97,VALID,0.9133,
2003-05-19, 00:48:00,VALID,918.95,VALID,0,VALID,97.4164,VALID,0.0339617,VALID,18.5226,VALID,90,VALID,0.830387,
2003-05-19, 00:49:00,VALID,918.944,VALID,0,VALID,97.2116,VALID,0.0339617,VALID,18.5034,VALID,90,VALID,0.836939,
2003-05-19, 00:50:01,VALID,918.933,VALID,0,VALID,97.4647,VALID,0.0509425,VALID,18.4838,VALID,99,VALID,1.10417,
2003-05-19, 00:51:00,VALID,918.936,VALID,0,VALID,97.5283,VALID,0.0169808,VALID,18.5062,VALID,113,VALID,1.01623,
2003-05-19, 00:52:00,VALID,918.94,VALID,0,VALID,97.574,VALID,0.0509425,VALID,18.5231,VALID,130,VALID,1.25481,
2003-05-19, 00:53:00,VALID,918.924,VALID,0,VALID,97.7838,VALID,0.0849042,VALID,18.5415,VALID,128,VALID,1.34115,
2003-05-19, 00:54:01,VALID,918.909,VALID,0,VALID,97.7012,VALID,0.0509425,VALID,18.62,VALID,112,VALID,1.30164,
2003-05-19, 00:55:00,VALID,918.905,VALID,0,VALID,97.2803,VALID,0.0509425,VALID,18.6424,VALID,115,VALID,1.11719,
2003-05-19, 00:56:01,VALID,918.881,VALID,0,VALID,97.0883,VALID,0.0509425,VALID,18.668,VALID,116,VALID,1.0944,
2003-05-19, 00:57:00,VALID,918.869,VALID,0,VALID,96.7081,VALID,0.0509425,VALID,18.6715,VALID,101,VALID,1.05659,
2003-05-19, 00:58:00,VALID,918.847,VALID,0,VALID,96.4665,VALID,0.0339617,VALID,18.6613,VALID,121,VALID,0.97678,
2003-05-19, 00:59:00,VALID,918.842,VALID,0,VALID,96.5402,VALID,0.0679233,VALID,18.6687,VALID,99,VALID,1.38411,
2003-05-19, 01:00:01,VALID,918.822,VALID,0,VALID,96.0812,VALID,0.0169808,VALID,18.6583,VALID,107,VALID,1.06579,
2003-05-19, 01:01:00,VALID,918.817,VALID,0,VALID,96.118,VALID,0.0509425,VALID,18.6325,VALID,124,VALID,0.831715,
2003-05-19, 01:02:00,VALID,918.811,VALID,0,VALID,95.9629,VALID,0.0339617,VALID,18.6327,VALID,112,VALID,0.912418,
2003-05-19, 01:03:01,VALID,918.799,VALID,0,VALID,95.9426,VALID,0.0509425,VALID,18.6064,VALID,106,VALID,1.45025,
2003-05-19, 01:04:00,VALID,918.808,VALID,0,VALID,96.0863,VALID,0.0849042,VALID,18.5999,VALID,110,VALID,1.50946,
2003-05-19, 01:05:00,VALID,918.8,VALID,0,VALID,95.996,VALID,0.101885,VALID,18.6225,VALID,97,VALID,1.1269,
2003-05-19, 01:06:01,VALID,918.775,VALID,0,VALID,96.1562,VALID,0.0679233,VALID,18.6387,VALID,108,VALID,1.19346,
2003-05-19, 01:07:00,VALID,918.79,VALID,0,VALID,95.9922,VALID,0.0679233,VALID,18.6523,VALID,126,VALID,1.11529,
2003-05-19, 01:08:00,VALID,918.785,VALID,0,VALID,96.1448,VALID,0.0509425,VALID,18.6611,VALID,109,VALID,1.3625,
2003-05-19, 01:09:01,VALID,918.781,VALID,0,VALID,96.0672,VALID,0.0679233,VALID,18.6645,VALID,114,VALID,1.45933,
2003-05-19, 01:10:00,VALID,918.775,VALID,0,VALID,96.099,VALID,-0.0169808,VALID,18.6519,VALID,118,VALID,1.32369,
2003-05-19, 01:11:01,VALID,918.76,VALID,0,VALID,96.0367,VALID,0.0509425,VALID,18.6362,VALID,118,VALID,1.11679,
2003-05-19, 01:12:00,VALID,918.744,VALID,0,VALID,96.1397,VALID,0.0679233,VALID,18.6364,VALID,122,VALID,1.1377,
2003-05-19, 01:13:00,VALID,918.307,VALID,0,VALID,96.16,VALID,0.0169808,VALID,18.6098,VALID,119,VALID,1.42568,
2003-05-19, 01:14:00,VALID,918.716,VALID,0,VALID,95.809,VALID,0.0339617,VALID,18.5902,VALID,96,VALID,0.887019,
2003-05-19, 01:15:00,VALID,918.712,VALID,0,VALID,95.9375,VALID,0.0509425,VALID,18.5618,VALID,117,VALID,0.969551,
2003-05-19, 01:16:00,VALID,918.73,VALID,0,VALID,95.8447,VALID,0.0169808,VALID,18.5005,VALID,114,VALID,0.780101,
2003-05-19, 01:17:01,VALID,918.74,VALID,0,VALID,96.2261,VALID,0.0509425,VALID,18.4423,VALID,115,VALID,0.559622,
2003-05-19, 01:18:00,VALID,918.74,VALID,0,VALID,96.2121,VALID,0.0169808,VALID,18.4164,VALID,109,VALID,0.752673,
2003-05-19, 01:19:00,VALID,918.744,VALID,0,VALID,96.806,VALID,0.0509425,VALID,18.41,VALID,102,VALID,1.30254,
2003-05-19, 01:20:00,VALID,918.744,VALID,0,VALID,96.8607,VALID,0.0169808,VALID,18.407,VALID,70,VALID,0.840255,
2003-05-19, 01:21:01,VALID,918.753,VALID,0,VALID,96.6419,VALID,0.0509425,VALID,18.3943,VALID,101,VALID,1.04055,
2003-05-19, 01:22:00,VALID,918.759,VALID,0,VALID,96.647,VALID,0.0509425,VALID,18.358,VALID,104,VALID,0.840872,
2003-05-19, 01:23:00,VALID,918.749,VALID,0,VALID,96.6648,VALID,0.0679233,VALID,18.3354,VALID,117,VALID,0.723758,
2003-05-19, 01:24:00,VALID,918.754,VALID,0,VALID,96.5707,VALID,0.0679233,VALID,18.3064,VALID,129,VALID,0.410352,
2003-05-19, 01:25:00,VALID,918.742,VALID,0,VALID,96.8721,VALID,0.0509425,VALID,18.2673,VALID,93,VALID,1.02012,
2003-05-19, 01:26:00,VALID,918.728,VALID,0,VALID,96.9548,VALID,0.0679233,VALID,18.2604,VALID,71,VALID,1.01342,
2003-05-19, 01:27:01,VALID,918.717,VALID,0,VALID,96.8759,VALID,0.0849042,VALID,18.2383,VALID,89,VALID,0.914474,
2003-05-19, 01:28:00,VALID,918.706,VALID,0,VALID,97.0374,VALID,0.0679233,VALID,18.2226,VALID,94,VALID,1.15587,
2003-05-19, 01:29:00,VALID,918.684,VALID,0,VALID,97.1353,VALID,0.0509425,VALID,18.2288,VALID,77,VALID,1.26783,
2003-05-19, 01:30:00,VALID,918.672,VALID,0,VALID,97.0361,VALID,0.0339617,VALID,18.232,VALID,102,VALID,1.2628,
2003-05-19, 01:31:00,VALID,918.669,VALID,0,VALID,97.0984,VALID,0.0679233,VALID,18.2517,VALID,103,VALID,1.28981,
2003-05-19, 01:32:00,VALID,918.652,VALID,0,VALID,96.9217,VALID,0.0849042,VALID,18.2579,VALID,103,VALID,1.27196,
2003-05-19, 01:33:01,VALID,918.636,VALID,0,VALID,96.7182,VALID,0.0679233,VALID,18.2579,VALID,108,VALID,1.41585,
2003-05-19, 01:34:01,VALID,918.633,VALID,0,VALID,96.4207,VALID,0.0169808,VALID,18.2611,VALID,101,VALID,1.12212,
2003-05-19, 01:35:00,VALID,918.62,VALID,0,VALID,96.3012,VALID,0.0509425,VALID,18.2678,VALID,105,VALID,1.1609,
2003-05-19, 01:36:00,VALID,918.612,VALID,0,VALID,96.0837,VALID,0.0169808,VALID,18.2777,VALID,86,VALID,1.12068,
2003-05-19, 01:37:01,VALID,918.601,VALID,0,VALID,96.1816,VALID,0.0679233,VALID,18.235,VALID,89,VALID,1.20189,
2003-05-19, 01:38:01,VALID,918.59,VALID,0,VALID,96.1994,VALID,0.0339617,VALID,18.2618,VALID,104,VALID,1.07833,
2003-05-19, 01:39:00,VALID,918.582,VALID,0,VALID,95.9744,VALID,0.0849042,VALID,18.2253,VALID,114,VALID,1.24493,
2003-05-19, 01:40:01,VALID,918.575,VALID,0,VALID,95.7035,VALID,0.0339617,VALID,18.191,VALID,118,VALID,0.941506,
2003-05-19, 01:41:00,VALID,918.569,VALID,0,VALID,95.5191,VALID,0,VALID,18.11,VALID,100,VALID,0.858742,
2003-05-19, 01:42:00,VALID,918.569,VALID,0,VALID,95.9476,VALID,-0.0339617,VALID,18.0423,VALID,105,VALID,1.13652,
2003-05-19, 01:43:00,VALID,918.56,VALID,0,VALID,96.2923,VALID,0.0509425,VALID,18.0003,VALID,106,VALID,1.1916,
2003-05-19, 01:44:01,VALID,918.537,VALID,0,VALID,96.4258,VALID,-0.0679233,VALID,17.9775,VALID,90,VALID,1.42927,
2003-05-19, 01:45:01,VALID,918.52,VALID,0,VALID,96.1994,VALID,0,VALID,17.9646,VALID,91,VALID,1.37192,
2003-05-19, 01:46:00,VALID,918.512,VALID,0,VALID,96.1905,VALID,0.0169808,VALID,17.9484,VALID,94,VALID,1.28065,
2003-05-19, 01:47:00,VALID,918.504,VALID,0,VALID,96.2121,VALID,-0.0339617,VALID,17.9383,VALID,107,VALID,1.21454,
2003-05-19, 01:48:00,VALID,918.498,VALID,0,VALID,96.1168,VALID,0.0169808,VALID,17.9355,VALID,107,VALID,1.08854,
2003-05-19, 01:49:00,VALID,918.482,VALID,0,VALID,96.1931,VALID,0,VALID,17.9094,VALID,107,VALID,1.48678,
2003-05-19, 01:50:00,VALID,918.469,VALID,0,VALID,96.099,VALID,0,VALID,17.9099,VALID,118,VALID,1.25781,
2003-05-19, 01:51:00,VALID,918.461,VALID,0,VALID,96.0087,VALID,-0.0339617,VALID,17.9069,VALID,127,VALID,0.895633,
2003-05-19, 01:52:01,VALID,918.45,VALID,0,VALID,96.0049,VALID,-0.0339617,VALID,17.8711,VALID,138,VALID,1.17378,
2003-05-19, 01:53:01,VALID,918.457,VALID,0,VALID,96.1587,VALID,-0.0509425,VALID,17.8586,VALID,127,VALID,0.653906,
2003-05-19, 01:54:01,VALID,918.452,VALID,0,VALID,96.0901,VALID,-0.0169808,VALID,17.8134,VALID,137,VALID,0.974918,
2003-05-19, 01:55:00,VALID,918.457,VALID,0,VALID,96.4092,VALID,0,VALID,17.7679,VALID,129,VALID,1.13472,
2003-05-19, 01:56:01,VALID,918.453,VALID,0,VALID,96.6559,VALID,-0.0339617,VALID,17.7617,VALID,128,VALID,1.22985,
2003-05-19, 01:57:00,VALID,918.455,VALID,0,VALID,96.6915,VALID,-0.0169808,VALID,17.7483,VALID,129,VALID,1.01462,
2003-05-19, 01:58:01,VALID,918.461,VALID,0,VALID,96.7259,VALID,-0.0169808,VALID,17.7356,VALID,109,VALID,1.3127,
2003-05-19, 01:59:00,VALID,918.446,VALID,0,VALID,96.7335,VALID,-0.0509425,VALID,17.7361,VALID,97,VALID,1.54187,
2003-05-19, 02:00:01,VALID,918.43,VALID,0,VALID,96.5199,VALID,-0.0169808,VALID,17.7425,VALID,112,VALID,1.30008,
2003-05-19, 02:01:00,VALID,918.434,VALID,0,VALID,96.4334,VALID,-0.0169808,VALID,17.7292,VALID,99,VALID,1.3776,
2003-05-19, 02:02:01,VALID,918.402,VALID,0,VALID,96.2935,VALID,0.0169808,VALID,17.7165,VALID,89,VALID,1.5061,
2003-05-19, 02:03:00,VALID,918.37,VALID,0,VALID,96.2465,VALID,0,VALID,17.7135,VALID,95,VALID,1.63962,
2003-05-19, 02:04:01,VALID,918.361,VALID,0,VALID,96.3419,VALID,-0.0339617,VALID,17.7227,VALID,94,VALID,1.38325,
2003-05-19, 02:05:00,VALID,918.364,VALID,0,VALID,96.0901,VALID,-0.0169808,VALID,17.7199,VALID,87,VALID,1.31021,
2003-05-19, 02:06:01,VALID,918.35,VALID,0,VALID,95.8116,VALID,-0.0339617,VALID,17.7232,VALID,97,VALID,1.07595,
2003-05-19, 02:07:01,VALID,918.354,VALID,0,VALID,96.0087,VALID,-0.0169808,VALID,17.6876,VALID,98,VALID,1.15495,
2003-05-19, 02:08:01,VALID,918.346,VALID,0,VALID,95.9222,VALID,-0.0679233,VALID,17.6975,VALID,104,VALID,1.11883,
2003-05-19, 02:09:00,VALID,918.345,VALID,0,VALID,95.8103,VALID,-0.0339617,VALID,17.6516,VALID,105,VALID,1.22234,
2003-05-19, 02:10:00,VALID,918.325,VALID,0,VALID,95.9248,VALID,-0.0339617,VALID,17.635,VALID,101,VALID,1.45374,
2003-05-19, 02:11:01,VALID,918.306,VALID,0,VALID,95.7773,VALID,0.0679233,VALID,17.6344,VALID,98,VALID,1.59025,
2003-05-19, 02:12:00,VALID,918.288,VALID,0,VALID,95.9426,VALID,0.0849042,VALID,17.6311,VALID,102,VALID,1.49486,
2003-05-19, 02:13:01,VALID,918.273,VALID,0,VALID,95.7569,VALID,0.0849042,VALID,17.6411,VALID,121,VALID,1.50127,
2003-05-19, 02:14:01,VALID,918.273,VALID,0,VALID,95.6844,VALID,0.101885,VALID,17.6309,VALID,128,VALID,0.920641,
2003-05-19, 02:15:01,VALID,918.274,VALID,0,VALID,95.5725,VALID,0.101885,VALID,17.6184,VALID,142,VALID,0.718961,
2003-05-19, 02:16:01,VALID,918.277,VALID,0,VALID,95.5903,VALID,0.0679233,VALID,17.6055,VALID,133,VALID,0.929492,
2003-05-19, 02:17:01,VALID,918.281,VALID,0,VALID,95.6463,VALID,0.118866,VALID,17.5827,VALID,128,VALID,0.998798,
2003-05-19, 02:18:01,VALID,918.274,VALID,0,VALID,95.6463,VALID,0.0509425,VALID,17.5635,VALID,111,VALID,1.019,
2003-05-19, 02:19:01,VALID,918.265,VALID,0,VALID,95.6857,VALID,0.0509425,VALID,17.534,VALID,93,VALID,1.0619,
2003-05-19, 02:20:01,VALID,918.251,VALID,0,VALID,95.7289,VALID,0.118866,VALID,17.5248,VALID,85,VALID,0.980859,
2003-05-19, 02:21:01,VALID,918.239,VALID,0,VALID,95.7518,VALID,0.0849042,VALID,17.5146,VALID,111,VALID,0.967949,
2003-05-19, 02:22:01,VALID,918.218,VALID,0,VALID,95.8497,VALID,0.0679233,VALID,17.5153,VALID,105,VALID,1.09535,
2003-05-19, 02:23:01,VALID,918.207,VALID,0,VALID,95.7684,VALID,0.0679233,VALID,17.4952,VALID,109,VALID,1.00942,
2003-05-19, 02:24:01,VALID,918.187,VALID,0,VALID,95.4377,VALID,0.0849042,VALID,17.5194,VALID,135,VALID,1.29274,
2003-05-19, 02:25:01,VALID,918.185,VALID,0,VALID,95.3996,VALID,0.0339617,VALID,17.5386,VALID,126,VALID,1.32091,
2003-05-19, 02:26:01,VALID,918.17,VALID,0,VALID,95.13,VALID,0.0849042,VALID,17.5508,VALID,133,VALID,0.949424,
2003-05-19, 02:27:01,VALID,918.167,VALID,0,VALID,94.8439,VALID,0.0509425,VALID,17.5181,VALID,118,VALID,0.704492,
2003-05-19, 02:28:01,VALID,918.17,VALID,0,VALID,95.055,VALID,0.0849042,VALID,17.4668,VALID,107,VALID,1.16488,
2003-05-19, 02:29:01,VALID,918.177,VALID,0,VALID,95.1936,VALID,0.0849042,VALID,17.4828,VALID,96,VALID,1.23512,
2003-05-19, 02:30:01,VALID,918.172,VALID,0,VALID,95.1097,VALID,0.0339617,VALID,17.5054,VALID,106,VALID,1.46896,
2003-05-19, 02:31:01,VALID,918.178,VALID,0,VALID,94.8782,VALID,0.0849042,VALID,17.5571,VALID,119,VALID,1.33954,
2003-05-19, 02:32:01,VALID,918.184,VALID,0,VALID,94.7549,VALID,0.0849042,VALID,17.5663,VALID,107,VALID,1.4373,
2003-05-19, 02:33:00,VALID,918.182,VALID,0,VALID,94.4065,VALID,0.0679233,VALID,17.5732,VALID,107,VALID,1.27461,
2003-05-19, 02:34:00,VALID,918.199,VALID,0,VALID,94.3734,VALID,0.0849042,VALID,17.5375,VALID,111,VALID,0.96234,
2003-05-19, 02:35:00,VALID,918.196,VALID,0,VALID,94.8592,VALID,0.0849042,VALID,17.5345,VALID,113,VALID,1.0736,
2003-05-19, 02:36:00,VALID,918.2,VALID,0,VALID,94.8236,VALID,0.0849042,VALID,17.5312,VALID,102,VALID,1.09832,
2003-05-19, 02:37:00,VALID,918.188,VALID,0,VALID,94.5552,VALID,0.0679233,VALID,17.5017,VALID,98,VALID,1.10337,
2003-05-19, 02:38:00,VALID,918.18,VALID,0,VALID,94.657,VALID,0.0849042,VALID,17.4834,VALID,101,VALID,1.05056,
2003-05-19, 02:39:00,VALID,918.169,VALID,0,VALID,94.9634,VALID,0.101885,VALID,17.4481,VALID,103,VALID,1.09245,
2003-05-19, 02:40:00,VALID,918.153,VALID,0,VALID,95.1758,VALID,0.0679233,VALID,17.4475,VALID,100,VALID,1.23269,
2003-05-19, 02:41:00,VALID,918.122,VALID,0,VALID,95.0728,VALID,0.0849042,VALID,17.4382,VALID,106,VALID,1.22879,
2003-05-19, 02:42:00,VALID,918.122,VALID,0,VALID,95.1033,VALID,0.0339617,VALID,17.4218,VALID,112,VALID,1.10321,
2003-05-19, 02:43:00,VALID,918.106,VALID,0,VALID,95.0346,VALID,0.0849042,VALID,17.4027,VALID,105,VALID,1.19257,
2003-05-19, 02:44:00,VALID,918.098,VALID,0,VALID,95.0601,VALID,0.0509425,VALID,17.393,VALID,110,VALID,1.24979,
2003-05-19, 02:45:00,VALID,918.095,VALID,0,VALID,95.0194,VALID,0.0679233,VALID,17.3829,VALID,115,VALID,1.18791,
2003-05-19, 02:46:00,VALID,918.097,VALID,0,VALID,95.1122,VALID,0.0849042,VALID,17.3865,VALID,104,VALID,1.17027,
2003-05-19, 02:47:00,VALID,918.083,VALID,0,VALID,94.835,VALID,0.118866,VALID,17.3439,VALID,98,VALID,1.0359,
2003-05-19, 02:48:00,VALID,918.076,VALID,0,VALID,95.0359,VALID,0.0849042,VALID,17.3053,VALID,105,VALID,1.08754,
2003-05-19, 02:49:00,VALID,918.063,VALID,0,VALID,95.294,VALID,0.0849042,VALID,17.2726,VALID,108,VALID,1.2329,
2003-05-19, 02:50:00,VALID,918.051,VALID,0,VALID,95.1999,VALID,0.0509425,VALID,17.2539,VALID,106,VALID,1.22207,
2003-05-19, 02:51:00,VALID,918.027,VALID,0,VALID,94.9444,VALID,0.135847,VALID,17.2151,VALID,102,VALID,1.18066,
2003-05-19, 02:52:00,VALID,918.024,VALID,0,VALID,94.9609,VALID,0.0509425,VALID,17.1602,VALID,95,VALID,1.18032,
2003-05-19, 02:53:00,VALID,918.018,VALID,0,VALID,94.8604,VALID,0.0849042,VALID,17.1085,VALID,104,VALID,1.00493,
2003-05-19, 02:54:00,VALID,918.008,VALID,0,VALID,94.9456,VALID,0.101885,VALID,17.07,VALID,102,VALID,1.04547,
2003-05-19, 02:55:00,VALID,917.994,VALID,0,VALID,94.4878,VALID,0.0509425,VALID,17.0409,VALID,98,VALID,0.904848,
2003-05-19, 02:56:00,VALID,917.988,VALID,0,VALID,94.4128,VALID,0.0849042,VALID,16.9602,VALID,103,VALID,0.908854,
2003-05-19, 02:57:00,VALID,917.974,VALID,0,VALID,94.8439,VALID,0.0679233,VALID,16.9022,VALID,81,VALID,0.936699,
2003-05-19, 02:58:00,VALID,917.955,VALID,0,VALID,94.5235,VALID,0.101885,VALID,16.8243,VALID,83,VALID,0.945786,
2003-05-19, 02:59:00,VALID,917.956,VALID,0,VALID,94.5069,VALID,0.0679233,VALID,16.7371,VALID,87,VALID,0.898838,
2003-05-19, 03:00:00,VALID,917.966,VALID,0,VALID,95.1313,VALID,0.0509425,VALID,16.6886,VALID,99,VALID,0.965794,
2003-05-19, 03:01:00,VALID,917.957,VALID,0,VALID,95.645,VALID,0.0509425,VALID,16.6919,VALID,93,VALID,0.999219,
2003-05-19, 03:02:00,VALID,917.975,VALID,0,VALID,95.7251,VALID,0.0849042,VALID,16.6828,VALID,96,VALID,0.969572,
2003-05-19, 03:03:00,VALID,917.972,VALID,0,VALID,95.598,VALID,0.0679233,VALID,16.6794,VALID,95,VALID,0.926829,
2003-05-19, 03:04:00,VALID,917.983,VALID,0,VALID,94.6392,VALID,0.0679233,VALID,16.6085,VALID,81,VALID,0.85403,
2003-05-19, 03:05:00,VALID,917.978,VALID,0,VALID,94.053,VALID,0.101885,VALID,16.4499,VALID,77,VALID,0.851963,
2003-05-19, 03:06:00,VALID,917.982,VALID,0,VALID,93.8139,VALID,0.0679233,VALID,16.2757,VALID,63,VALID,0.729367,
2003-05-19, 03:07:00,VALID,917.985,VALID,0,VALID,94.6671,VALID,0.0509425,VALID,16.1401,VALID,67,VALID,0.711739,
2003-05-19, 03:08:00,VALID,917.975,VALID,0,VALID,96.319,VALID,0.0679233,VALID,16.134,VALID,88,VALID,0.990184,
2003-05-19, 03:09:00,VALID,917.96,VALID,0,VALID,96.5847,VALID,0.0849042,VALID,16.2628,VALID,104,VALID,0.951723,
2003-05-19, 03:10:00,VALID,917.942,VALID,0,VALID,95.7798,VALID,0.0679233,VALID,16.3885,VALID,121,VALID,1.05526,
2003-05-19, 03:11:00,VALID,917.931,VALID,0,VALID,94.7701,VALID,0.0849042,VALID,16.4987,VALID,127,VALID,1.09455,
2003-05-19, 03:12:00,VALID,917.913,VALID,0,VALID,94.1305,VALID,0.0679233,VALID,16.5437,VALID,133,VALID,0.991753,
2003-05-19, 03:13:00,VALID,917.9,VALID,0,VALID,94.2145,VALID,0.0509425,VALID,16.5375,VALID,144,VALID,1.06421,
2003-05-19, 03:14:00,VALID,917.898,VALID,0,VALID,94.9164,VALID,0.0679233,VALID,16.5276,VALID,143,VALID,1.10764,
2003-05-19, 03:15:00,VALID,917.888,VALID,0,VALID,95.2038,VALID,0.0679233,VALID,16.5125,VALID,137,VALID,0.990234,
2003-05-19, 03:16:00,VALID,917.879,VALID,0,VALID,95.1516,VALID,0.0339617,VALID,16.4701,VALID,134,VALID,0.665913,
2003-05-19, 03:17:00,VALID,917.87,VALID,0,VALID,95.1046,VALID,0.0509425,VALID,16.3794,VALID,129,VALID,0.701858,
2003-05-19, 03:18:00,VALID,917.846,VALID,0,VALID,95.3119,VALID,0.0339617,VALID,16.331,VALID,121,VALID,0.802015,
2003-05-19, 03:19:00,VALID,917.829,VALID,0,VALID,95.3869,VALID,0.0509425,VALID,16.3086,VALID,119,VALID,1.21012,
2003-05-19, 03:20:00,VALID,917.827,VALID,0,VALID,94.7816,VALID,-0.0169808,VALID,16.3746,VALID,109,VALID,1.35506,
2003-05-19, 03:21:00,VALID,917.806,VALID,0,VALID,93.7376,VALID,-0.0339617,VALID,16.5038,VALID,111,VALID,1.46073,
2003-05-19, 03:22:00,VALID,917.815,VALID,0,VALID,92.5016,VALID,-0.0339617,VALID,16.6556,VALID,102,VALID,1.3602,
2003-05-19, 03:23:00,VALID,917.787,VALID,0,VALID,91.4042,VALID,-0.0339617,VALID,16.7973,VALID,107,VALID,1.35473,
2003-05-19, 03:24:00,VALID,917.778,VALID,0,VALID,90.4747,VALID,-0.0169808,VALID,16.933,VALID,100,VALID,1.32109,
2003-05-19, 03:25:00,VALID,917.745,VALID,0,VALID,89.6036,VALID,0.0339617,VALID,17.071,VALID,90,VALID,1.01002,
2003-05-19, 03:26:00,VALID,917.715,VALID,0,VALID,89.1802,VALID,0.0679233,VALID,17.132,VALID,96,VALID,1.16955,
2003-05-19, 03:27:00,VALID,917.684,VALID,0,VALID,88.9691,VALID,0.0509425,VALID,17.1514,VALID,123,VALID,1.13942,
2003-05-19, 03:28:00,VALID,917.678,VALID,0,VALID,89.4052,VALID,0.0849042,VALID,17.1223,VALID,133,VALID,1.0375,
2003-05-19, 03:29:00,VALID,917.653,VALID,0,VALID,90.3208,VALID,0.0509425,VALID,17.0252,VALID,132,VALID,1.02784,
2003-05-19, 03:30:00,VALID,917.639,VALID,0,VALID,92.1417,VALID,0.0679233,VALID,16.922,VALID,130,VALID,1.08854,
2003-05-19, 03:31:00,VALID,917.632,VALID,0,VALID,93.0382,VALID,0.0679233,VALID,16.7864,VALID,110,VALID,0.963141,
2003-05-19, 03:32:00,VALID,917.619,VALID,0,VALID,93.5926,VALID,0.101885,VALID,16.6443,VALID,112,VALID,1.31457,
2003-05-19, 03:33:00,VALID,917.604,VALID,0,VALID,93.9754,VALID,0.0679233,VALID,16.5409,VALID,122,VALID,1.11558,